www.pogodaiklimat.ru

Погода и климат >> Архив погоды >> Австралия >> Birdsville Airport


ПОГОДА в Birdsville Airport

  • Прогноз погоды в Birdsville Airport
  • Монитор погоды в Birdsville Airport
  • Климат города

АРХИВ ПОГОДЫ в Birdsville Airport

Время (UTC), дата Ветер
(напр.,м/с)
 
Видим.   Явления Облачность Т
(С)
Тd
(С)
f
(%)
Тe
(С)
Тes
(С)
Комфортность P
(гПа)
Po
(гПа)
Тmin
(С)
Tmax
(С)
R
(мм)
R24
(мм)
S
(см)
08 13.01 ЮЗ 8 н/о н/о +35.2 +16.5 33 +38 +38 очень
душно
1007.3 1002.1
09 13.01 ЮЗ 8 н/о н/о +34.3 +15.7 33 +36 +36 душно 1007.7 1002.5
11 13.01 ЮЗ 8 н/о н/о +32.7 +13.8 32 +34 +34 очень
жарко
1008.9 1003.7
12 13.01 ЮЗ 8 н/о н/о +31.9 +13.2 32 +33 +33 жарко 1009.3 1004.1
14 13.01 ЮЗ 7 н/о н/о +30.2 +8.0 25 +29 +29 жарко 1009.9 1004.7 +37.8
15 13.01 ЮЗ 8 н/о н/о +29.3 +7.2 25 +28 +28 жарко 1009.5 1004.3
17 13.01 Ю 7 н/о н/о +27.3 +7.7 29 +27 +27 жарко 1008.9 1003.7
18 13.01 Ю 5 н/о н/о +26.1 +7.2 30 +26 +26 жарко 1008.7 1003.5
20 13.01 Ю 7 н/о н/о +25.1 +7.7 33 +25 +25 комфорт 1009.6 1004.4
21 13.01 Ю 8 н/о н/о +24.7 +9.0 37 +25 +25 комфорт 1010.7 1005.4
23 13.01 Ю 10 н/о н/о +27.4 +11.0 36 +28 +28 жарко 1011.9 1006.6
00 14.01 Ю 9 н/о н/о +29.0 +11.1 33 +30 +30 жарко 1012.1 1006.8
02 14.01 Ю 8 н/о н/о +32.1 +10.2 26 +32 +32 жарко 1011.4 1006.1 +24.7
03 14.01 Ю 8 н/о н/о +32.7 +9.5 24 +32 +32 жарко 1010.7 1005.4
05 14.01 Ю 9 н/о н/о +34.2 +8.8 21 +33 +33 жарко 1009.1 1003.9
06 14.01 Ю 9 н/о н/о +34.7 +7.7 19 +33 +33 жарко 1008.4 1003.2
08 14.01 Ю 9 н/о н/о +33.2 +5.7 18 +31 +31 жарко 1008.3 1003.1
09 14.01 Ю 9 н/о н/о +31.5 +3.5 17 +29 +29 жарко 1008.7 1003.5
11 14.01 Ю 7 н/о н/о +28.6 +2.0 18 +26 +26 жарко 1010.1 1004.9
12 14.01 Ю 8 н/о н/о +27.5 +1.1 18 +25 +25 комфорт 1010.5 1005.2
14 14.01 Ю 7 н/о н/о +26.0 -0.1 18 +24 +24 комфорт 1011.0 1005.7 +35.7
15 14.01 Ю 7 н/о н/о +24.4 -0.7 19 +23 +23 комфорт 1010.6 1005.3
17 14.01 Ю 5 н/о н/о +22.1 -1.2 21 +21 +21 комфорт 1010.0 1004.8
18 14.01 Ю 5 н/о н/о +21.2 -1.3 22 +21 +21 комфорт 1009.9 1004.7
20 14.01 Ю 5 н/о н/о +20.5 -1.3 23 +20 +20 1011.0 1005.7
21 14.01 Ю 6 н/о н/о +21.6 -1.0 22 +21 +21 комфорт 1011.9 1006.6
23 14.01 ЮВ 10 н/о н/о +27.3 +0.1 17 +25 +25 комфорт 1012.6 1007.3
00 15.01 ЮВ 9 н/о н/о +29.5 +0.2 15 +27 +27 жарко 1012.5 1007.2
02 15.01 ЮВ 8 н/о н/о +32.7 -1.6 11 +29 +29 жарко 1011.5 1006.2 +20.3
03 15.01 Ю 9 н/о н/о +33.1 -2.6 10 +29 +29 жарко 1010.2 1005.0
05 15.01 ЮВ 8 н/о н/о +36.2 -3.3 8 +32 +32 жарко 1008.5 1003.3
06 15.01 ЮВ 8 н/о н/о +36.5 -3.0 8 +32 +32 жарко 1007.6 1002.4
08 15.01 ЮВ 10 н/о н/о +36.2 -1.7 9 +32 +32 жарко 1007.1 1001.9
09 15.01 ЮВ 9 н/о н/о +35.6 -2.1 9 +32 +32 жарко 1007.5 1002.3
11 15.01 Ю 5 н/о н/о +31.9 -1.0 12 +29 +29 жарко 1008.5 1003.3
12 15.01 Ю 4 н/о н/о +30.1 -0.3 14 +27 +27 жарко 1008.8 1003.6
14 15.01 Ю 4 н/о н/о +27.2 +0.1 17 +25 +25 комфорт 1009.1 1003.9 +38.0
15 15.01 Ю 4 н/о н/о +26.4 +0.2 18 +25 +25 комфорт 1008.6 1003.4
17 15.01 Ю 5 н/о н/о +25.8 +0.5 19 +24 +24 комфорт 1008.1 1002.9
18 15.01 Ю 5 н/о н/о +25.2 +0.7 20 +24 +24 комфорт 1008.1 1002.9
20 15.01 ЮВ 6 н/о н/о +24.3 +1.9 23 +23 +23 комфорт 1008.6 1003.4
21 15.01 ЮВ 5 н/о н/о +25.0 +3.0 24 +24 +24 комфорт 1009.4 1004.2
23 15.01 В 9 н/о н/о +32.7 +3.6 16 +30 +30 жарко 1010.2 1005.0
00 16.01 В 9 н/о н/о +35.0 +3.5 14 +32 +32 жарко 1010.3 1005.1
02 16.01 В 8 н/о н/о +37.2 -0.9 9 +33 +33 жарко 1009.2 1004.0 +24.2
03 16.01 В 7 н/о н/о +38.6 -1.5 8 +35 +35 очень
жарко
1008.2 1003.0
05 16.01 ЮВ 8 н/о н/о +40.7 0.0 8 +37 +37 очень
жарко
1006.7 1001.5
06 16.01 В 8 н/о н/о +39.9 -0.5 8 +36 +36 очень
жарко
1005.9 1000.7
08 16.01 ЮВ 8 н/о н/о +39.7 -0.7 8 +36 +36 очень
жарко
1005.5 1000.3
09 16.01 ЮВ 6 н/о н/о +38.7 +0.2 9 +35 +35 очень
жарко
1006.1 1000.9
11 16.01 ЮВ 5 н/о н/о +34.8 +2.3 13 +32 +32 жарко 1006.7 1001.5
12 16.01 ЮВ 5 н/о н/о +33.2 +4.0 16 +31 +31 жарко 1007.3 1002.1
14 16.01 ЮВ 5 н/о н/о +31.6 +5.2 19 +30 +30 жарко 1007.5 1002.3 +41.6
15 16.01 ЮВ 5 н/о н/о +31.3 +4.9 19 +29 +29 жарко 1007.2 1002.0
17 16.01 ЮВ 5 н/о н/о +29.4 +4.8 21 +28 +28 жарко 1006.9 1001.7
18 16.01 ЮВ 5 н/о н/о +28.6 +4.2 21 +27 +27 жарко 1007.0 1001.8
20 16.01 ЮВ 6 н/о н/о +28.2 +2.4 19 +26 +26 жарко 1007.9 1002.7
21 16.01 ЮВ 6 н/о н/о +28.3 +2.5 19 +26 +26 жарко 1008.6 1003.4
23 16.01 В 9 н/о н/о +34.3 +3.0 14 +31 +31 жарко 1008.7 1003.5
00 17.01 В 8 н/о н/о +35.8 +3.1 13 +33 +33 жарко 1008.7 1003.5
02 17.01 С 5 н/о н/о +39.5 +6.0 13 +37 +37 очень
жарко
1007.6 1002.4 +28.0
03 17.01 СВ 6 н/о н/о +40.8 +5.8 12 +38 +38 очень
жарко
1006.9 1001.7
05 17.01 В 7 н/о н/о +41.4 +7.4 13 +39 +39 очень
жарко
1005.9 1000.7
06 17.01 С 4 н/о н/о +40.8 +5.8 12 +38 +38 очень
жарко
1005.3 1000.1
08 17.01 СВ 5 н/о н/о +40.3 +10.6 17 +39 +39 очень
жарко
1005.3 1000.1
09 17.01 СВ 6 н/о н/о +39.6 +10.8 18 +38 +38 очень
жарко
1006.0 1000.8
11 17.01 СВ 5 н/о н/о +37.1 +11.8 22 +37 +37 очень
жарко
1007.4 1002.2
12 17.01 СВ 7 н/о н/о +36.0 +12.9 25 +36 +36 очень
жарко
1008.2 1003.0
14 17.01 СВ 6 н/о н/о +33.6 +12.6 28 +34 +34 очень
жарко
1009.0 1003.8 +43.3
15 17.01 СВ 5 н/о н/о +32.8 +11.9 28 +33 +33 жарко 1008.8 1003.6
17 17.01 СВ 6 н/о н/о +31.7 +11.0 28 +32 +32 жарко 1008.5 1003.3
18 17.01 С 6 н/о н/о +31.1 +10.4 28 +31 +31 жарко 1008.7 1003.5
20 17.01 СВ 3 н/о н/о +29.0 +9.7 30 +29 +29 жарко 1010.3 1005.1
21 17.01 СВ 3 н/о н/о +28.8 +10.5 32 +29 +29 жарко 1011.3 1006.0
23 17.01 СВ 8 н/о н/о +35.7 +10.7 22 +35 +35 очень
жарко
1011.9 1006.6
00 18.01 СВ 8 н/о н/о +37.2 +9.7 19 +36 +36 очень
жарко
1012.0 1006.7
02 18.01 В 10 н/о н/о +39.9 +7.4 14 +38 +38 очень
жарко
1010.8 1005.5 +28.4
03 18.01 В 7 н/о н/о +40.4 +6.7 13 +38 +38 очень
жарко
1009.9 1004.7
05 18.01 В 8 н/о н/о +41.2 +4.9 11 +38 +38 очень
жарко
1008.4 1003.2
06 18.01 В 8 н/о н/о +41.9 +5.4 11 +39 +39 очень
жарко
1007.6 1002.4
08 18.01 В 6 н/о н/о +40.7 +5.7 12 +38 +38 очень
жарко
1007.2 1002.0
09 18.01 В 7 н/о н/о +39.7 +3.7 11 +37 +37 очень
жарко
1007.7 1002.5
11 18.01 В 4 н/о н/о +36.3 +4.6 14 +33 +33 жарко 1008.7 1003.5
12 18.01 В 4 н/о н/о +35.8 +4.2 14 +33 +33 жарко 1009.4 1004.2
14 18.01 В 5 н/о н/о +34.8 +5.3 16 +32 +32 жарко 1009.6 1004.4 +43.1
15 18.01 В 4 н/о н/о +33.7 +5.3 17 +31 +31 жарко 1009.0 1003.8
17 18.01 СВ 3 н/о н/о +29.1 +5.2 22 +28 +28 жарко 1008.5 1003.3
18 18.01 С 3 н/о н/о +28.4 +5.3 23 +27 +27 жарко 1008.7 1003.5
20 18.01 СВ 3 н/о н/о +27.4 +5.1 24 +26 +26 жарко 1009.4 1004.2
21 18.01 СВ 3 н/о н/о +27.9 +4.9 23 +27 +27 жарко 1010.1 1004.9
23 18.01 С 5 н/о н/о +37.0 +6.1 15 +34 +34 очень
жарко
1010.8 1005.5
00 19.01 С 5 н/о н/о +38.7 +6.4 14 +36 +36 очень
жарко
1010.6 1005.3
02 19.01 С 4 н/о н/о +39.3 +4.7 12 +36 +36 очень
жарко
1009.7 1004.5 +27.2
03 19.01 ЮЗ 3 н/о н/о +41.5 +5.1 11 +39 +39 очень
жарко
1009.1 1003.9
05 19.01 В 5 н/о н/о +41.9 +5.4 11 +39 +39 очень
жарко
1007.5 1002.3
06 19.01 В 4 н/о н/о +41.9 +4.0 10 +39 +39 очень
жарко
1006.6 1001.4
08 19.01 С 2 н/о н/о +42.0 +4.1 10 +39 +39 очень
жарко
1005.9 1000.7
09 19.01 В 5 н/о н/о +40.9 +4.6 11 +38 +38 очень
жарко
1006.1 1000.9
11 19.01 СВ 3 н/о н/о +38.0 +5.9 14 +35 +35 очень
жарко
1006.6 1001.4
12 19.01 СВ 2 н/о н/о +35.9 +5.2 15 +33 +33 жарко 1007.1 1001.9
14 19.01 ЮЗ 3 н/о н/о +33.8 +7.7 20 +32 +32 жарко 1007.7 1002.5 +43.1
15 19.01 штиль 0 н/о н/о +33.1 +7.1 20 +31 +31 жарко 1007.2 1002.0
17 19.01 штиль 0 н/о н/о +31.7 +6.0 20 +30 +30 жарко 1006.4 1001.2
18 19.01 С 3 н/о н/о +30.8 +6.6 22 +29 +29 жарко 1006.3 1001.1
20 19.01 СЗ 4 н/о н/о +31.1 +8.2 24 +30 +30 жарко 1007.2 1002.0
21 19.01 СЗ 4 н/о н/о +30.8 +7.9 24 +30 +30 жарко 1007.8 1002.6
23 19.01 З 5 н/о н/о +35.2 +10.9 23 +35 +35 очень
жарко
1008.9 1003.7
00 20.01 З 6 н/о н/о +36.8 +14.1 26 +38 +38 очень
душно
1008.9 1003.7
02 20.01 З 4 н/о н/о +38.5 +13.0 22 +38 +38 очень
жарко
1007.7 1002.5 +30.4
03 20.01 С 5 н/о н/о +40.3 +12.2 19 +40 +40 очень
жарко
1006.9 1001.7
05 20.01 С 5 н/о н/о +40.5 +7.8 14 +38 +38 очень
жарко
1005.5 1000.3
06 20.01 СЗ 5 н/о н/о +40.6 +9.9 16 +39 +39 очень
жарко
1004.9 999.7

 

Местоположение метеостанции Birdsville Airport (Квинсленд, Австралия): широта -25.90 долгота 139.35 высота над уровнем моря 47 м.

В архиве по умолчанию представлена погода в Birdsville Airport за последнюю неделю. Архивные данные за месяц целиком и за предыдущие месяцы, начиная с января 2011 года, Вы можете получить, выбрав интересующий диапазон дат из раскрывающегося списка и нажав кнопку "Ввод!".

Внимание! Время в таблицах - всемирное. Для получения местного времени необходимо прибавить поправку, которая в Birdsville Airport равна 10 ч.

Смотрите также архив погоды в соседних городах и на ближайших метеорологических станциях:

Погода в Moomba Airport (Южная Австралия, Австралия) (259 км)
Погода в Ballera Gas Field (Квинсленд, Австралия) (298 км)
Погода в Oodnadatta Airport (Южная Австралия, Австралия) (429 км)
Погода в Marree Aero (Южная Австралия, Австралия) (437 км)
Погода в Phosphate Hill Airport (Квинсленд, Австралия) (460 км)
Погода в Jervois (Северная территория, Австралия) (461 км)
Погода в Tibooburra Airport (Новый Южный Уэльс, Австралия) (476 км)
Погода в Trepell Airport (Квинсленд, Австралия) (479 км)
Погода в Thargomindah Airport (Квинсленд, Австралия) (499 км)
Погода в Leigh Creek Airport (Южная Австралия, Австралия) (531 км)

Пояснения к столбцам:

Ветер - указаны скорость ветра в м/с - средняя за 10 мин, порывы в срок и между сроками (в фигурных скобках) и направление, откуда дует ветер: С - северный, СВ - северо-восточный, В - восточный, ЮВ - юго-восточный, Ю - южный, ЮЗ - юго-западный, З - западный, СЗ - северо-западный.
Видимость - горизонтальная дальность видимости в метрах или километрах. При видимости от 1 до 10 км при отсутствии осадков обычно наблюдается дымка, при ухудшении видимости до 1 км и менее - туман. В сухую погоду видимость может ухудшаться дымом, пылью или мглою.
Явления - указаны атмосферные явления, наблюдавшиеся в срок или в последний час перед сроком; фигурными скобками обозначены явления, наблюдавшиеся между сроками (за 1-3 часа до срока); квадратными скобками обозначены град или гололедные отложения с указанием их диаметра в мм.
Облачность - указаны через наклонную черту общая и нижняя облачность в баллах и высота нижней границы облаков в метрах; квадратными скобками обозначены формы облаков: Ci - перистые, Cs - перисто-слоистые, Cc - перисто-кучевые, Ac - высококучевые, As - высокослоистые, Sc - слоисто-кучевые, Ns - слоисто-дождевые, Cu - кучевые, Cb - кучево-дождевые. Подробнее классификацию облаков см. в Атласе облаков (PDF).
T - Температура воздуха - температура, измеренная на высоте 2 м над землей.
Td - Температура точки росы - температура, при понижении до которой содержащийся в воздухе водяной пар достигнет насыщения.
f - Относительная влажность воздуха - влажноcть воздуха, измеренная на высоте 2 м над землей.
Te - Эффективная температура - температура, которую ощущает одетый по сезону человек в тени. Характеристика душности погоды. При расчете учитывается влияние влажности воздуха и скорости ветра на теплоощущения человека.
Tes - Эффективная температура на солнце - температура, которую ощущает человек, с поправкой на солнечный нагрев. Характеристика знойности погоды. Зависит от высоты солнца над горизонтом, облачности и скорости ветра. Ночью, в пасмурную погоду, а также при ветре 12 м/с и более поправка равна нулю.
P - Атмосферное давление - приведенное к уровню моря атмосферное давление.
Po - Атмосферное давление - измеренное на уровне метеостанции атмосферное давление.
Tmin - Минимальная температура - минимум температуры воздуха на высоте 2 м над землей.
Tmax - Максимальная температура - максимум температуры воздуха на высоте 2 м над землей.
R - Количество осадков - Количество выпавших осадков за период времени, мм. При наведении курсора мыши на число - период времени, за который выпало указанное количество осадков.
R24 - Количество осадков - Количество выпавших осадков за 24 часа, мм.
S - Снежный покров - Высота снежного покрова, см. При наведении курсора мыши на число - состояние снежного покрова и степень покрытия местности в баллах.